ECMWFFLT2_850_dewp_102.txt.gz
Dewpoint
2 1 1 -4 -12 -10 -7 -7 -7 -7 -7 -7 -8 -9 -11 -12 -13 -13 -14 -14 -13 -14 -14 -14 -14 -14 -15 -15 -15 -15 -15 -16 -16 -16 -16 -16 -17 -16 -16 -16 -16 -17 -16 -16 -16 -16 -16 -15 -15 -15 -15 -16
2 2 -0 -7 -10 -6 -6 -6 -6 -7 -7 -7 -7 -8 -9 -10 -12 -13 -13 -14 -14 -14 -14 -14 -14 -14 -15 -15 -15 -16 -16 -16 -16 -16 -16 -16 -16 -16 -16 -16 -16 -16 -16 -16 -16 -16 -16 -16 -16 -16 -16 -16
2 2 -3 -8 -6 -5 -5 -5 -6 -6 -7 -8 -8 -9 -10 -11 -12 -13 -14 -14 -14 -14 -14 -14 -13 -14 -14 -15 -15 -15 -16 -16 -16 -16 -16 -16 -16 -16 -16 -16 -16 -16 -16 -16 -15 -16 -15 -16 -16 -16 -16 -17
2 -0 -5 -6 -4 -5 -5 -5 -6 -6 -7 -9 -9 -10 -11 -12 -12 -12 -13 -13 -13 -13 -13 -13 -13 -14 -14 -15 -15 -15 -16 -16 -16 -15 -15 -15 -15 -15 -15 -15 -15 -15 -15 -15 -15 -15 -15 -16 -15 -15 -16 -16
0 -3 -5 -4 -4 -5 -4 -5 -5 -6 -8 -9 -10 -11 -11 -11 -12 -12 -12 -12 -13 -13 -13 -13 -13 -14 -14 -15 -15 -15 -15 -15 -15 -15 -15 -15 -14 -14 -14 -14 -14 -14 -14 -14 -14 -14 -15 -14 -15 -15 -15 -15
-2 -3 -4 -4 -5 -4 -5 -5 -6 -7 -8 -9 -10 -10 -11 -11 -11 -12 -12 -12 -13 -13 -14 -14 -14 -14 -14 -15 -15 -15 -15 -15 -14 -14 -14 -14 -13 -13 -13 -13 -13 -13 -13 -14 -13 -13 -14 -13 -14 -14 -14 -14
-3 -3 -4 -4 -4 -4 -5 -6 -6 -7 -8 -9 -10 -10 -10 -11 -11 -12 -12 -13 -13 -13 -14 -14 -14 -14 -14 -15 -15 -15 -14 -14 -14 -13 -13 -13 -13 -13 -12 -12 -12 -12 -12 -13 -13 -13 -13 -13 -13 -13 -13 -13
-3 -3 -4 -4 -4 -5 -6 -6 -7 -8 -9 -9 -9 -10 -10 -11 -12 -12 -13 -13 -14 -14 -14 -14 -14 -14 -14 -14 -14 -14 -14 -13 -13 -13 -13 -12 -12 -12 -12 -12 -12 -12 -12 -12 -12 -12 -12 -12 -12 -12 -12 -12
-3 -4 -4 -5 -5 -6 -6 -7 -8 -8 -9 -9 -10 -10 -11 -12 -13 -13 -13 -13 -13 -13 -13 -14 -13 -13 -13 -13 -13 -13 -13 -13 -13 -13 -13 -12 -12 -12 -12 -12 -12 -11 -11 -11 -11 -11 -11 -11 -11 -12 -12 -12
-3 -4 -5 -5 -6 -6 -7 -8 -8 -9 -9 -10 -10 -11 -12 -13 -13 -13 -13 -13 -13 -13 -12 -12 -12 -12 -13 -13 -13 -14 -14 -14 -14 -14 -14 -13 -13 -13 -13 -12 -12 -12 -12 -11 -11 -11 -11 -11 -11 -11 -11 -11
-4 -5 -5 -6 -7 -7 -8 -8 -9 -9 -10 -11 -11 -12 -13 -13 -13 -12 -12 -12 -12 -11 -12 -13 -13 -14 -15 -16 -16 -17 -17 -17 -17 -17 -17 -17 -16 -16 -16 -16 -15 -15 -15 -14 -14 -13 -13 -13 -12 -12 -11 -11
-5 -5 -6 -7 -7 -8 -9 -9 -9 -10 -11 -12 -12 -13 -12 -12 -11 -11 -11 -11 -12 -13 -14 -15 -16 -17 -17 -18 -18 -19 -20 -20 -21 -21 -22 -22 -22 -22 -21 -21 -21 -21 -20 -19 -19 -18 -18 -17 -16 -15 -14 -13
-5 -6 -7 -7 -8 -9 -9 -10 -10 -11 -12 -12 -12 -12 -11 -11 -11 -11 -12 -14 -15 -16 -16 -17 -17 -17 -18 -19 -20 -21 -23 -24 -25 -25 -25 -25 -25 -26 -25 -26 -26 -25 -25 -25 -25 -24 -24 -23 -22 -22 -20 -18
-6 -7 -8 -8 -9 -9 -10 -10 -11 -11 -12 -12 -11 -11 -11 -11 -12 -14 -15 -16 -16 -16 -16 -16 -17 -18 -20 -22 -23 -25 -25 -25 -26 -26 -26 -26 -26 -26 -27 -27 -27 -27 -27 -27 -27 -27 -27 -27 -27 -26 -26 -25
-7 -8 -9 -9 -9 -10 -10 -11 -11 -12 -12 -11 -11 -11 -12 -14 -15 -16 -16 -15 -15 -15 -16 -17 -19 -22 -23 -25 -25 -25 -26 -26 -26 -26 -26 -26 -27 -27 -27 -27 -27 -27 -27 -27 -27 -27 -27 -27 -27 -28 -28 -27
-8 -9 -9 -9 -10 -10 -11 -11 -12 -11 -11 -11 -11 -13 -14 -15 -15 -15 -15 -15 -16 -17 -19 -21 -23 -25 -25 -26 -26 -26 -26 -27 -27 -27 -27 -27 -27 -27 -27 -27 -28 -27 -28 -27 -27 -27 -27 -28 -27 -27 -27 -28
-9 -9 -9 -10 -10 -11 -11 -12 -11 -10 -11 -12 -13 -15 -15 -15 -15 -14 -15 -16 -18 -21 -23 -24 -25 -25 -26 -26 -26 -27 -27 -27 -28 -27 -28 -28 -28 -28 -28 -28 -28 -28 -28 -28 -28 -28 -28 -28 -27 -28 -28 -28
-9 -9 -10 -10 -11 -11 -11 -11 -10 -11 -12 -14 -15 -15 -14 -14 -14 -15 -17 -20 -22 -24 -25 -25 -25 -26 -26 -27 -27 -27 -28 -28 -28 -28 -28 -28 -28 -28 -28 -28 -28 -28 -29 -29 -29 -29 -29 -29 -28 -29 -28 -28
-9 -10 -10 -11 -11 -11 -11 -10 -11 -12 -14 -15 -15 -14 -14 -14 -15 -18 -21 -23 -24 -25 -25 -25 -25 -26 -27 -28 -28 -28 -29 -29 -29 -29 -29 -29 -29 -29 -29 -29 -29 -29 -29 -29 -29 -30 -30 -30 -29 -29 -29 -29
-9 -10 -11 -11 -12 -11 -11 -11 -12 -13 -14 -14 -14 -14 -14 -16 -18 -21 -23 -23 -24 -25 -25 -25 -25 -26 -27 -28 -29 -29 -29 -30 -30 -30 -30 -30 -30 -30 -30 -30 -30 -30 -30 -30 -30 -30 -30 -30 -30 -30 -30 -30
-10 -11 -11 -12 -11 -11 -11 -11 -13 -14 -14 -14 -13 -14 -16 -18 -21 -22 -22 -23 -24 -25 -25 -25 -26 -26 -27 -28 -29 -30 -30 -31 -31 -31 -31 -31 -31 -31 -31 -31 -31 -31 -31 -31 -31 -31 -31 -30 -31 -30 -30 -31
-11 -11 -12 -12 -11 -11 -11 -12 -13 -14 -14 -14 -14 -16 -18 -20 -21 -21 -22 -22 -23 -24 -25 -25 -26 -27 -28 -29 -30 -31 -31 -32 -31 -32 -32 -32 -33 -32 -32 -32 -32 -32 -31 -31 -31 -31 -31 -31 -31 -31 -31 -31
-11 -11 -12 -12 -11 -11 -11 -12 -13 -14 -14 -14 -16 -18 -20 -20 -20 -20 -20 -21 -21 -22 -23 -24 -25 -27 -28 -29 -31 -31 -31 -32 -32 -32 -33 -32 -33 -33 -32 -33 -32 -32 -32 -32 -32 -31 -31 -31 -31 -31 -31 -31
-12 -12 -12 -12 -11 -11 -12 -13 -14 -14 -14 -15 -18 -19 -19 -19 -19 -19 -19 -19 -19 -19 -21 -22 -24 -25 -27 -29 -31 -32 -32 -32 -33 -33 -33 -33 -33 -33 -33 -33 -33 -33 -32 -32 -32 -32 -31 -31 -31 -31 -31 -31
-13 -13 -12 -12 -11 -12 -13 -13 -14 -14 -14 -17 -19 -19 -19 -18 -18 -18 -18 -17 -17 -17 -18 -19 -21 -23 -25 -28 -30 -32 -32 -32 -33 -33 -33 -34 -33 -33 -33 -33 -33 -32 -33 -33 -32 -33 -32 -31 -29 -27 -28 -30
-14 -13 -12 -11 -12 -12 -13 -13 -14 -14 -16 -18 -19 -19 -18 -18 -17 -17 -17 -16 -16 -16 -16 -17 -18 -20 -22 -25 -28 -31 -32 -32 -33 -33 -33 -34 -34 -34 -33 -33 -33 -33 -33 -33 -33 -33 -31 -29 -27 -24 -24 -26
-14 -13 -12 -12 -12 -12 -13 -14 -13 -14 -17 -19 -18 -18 -18 -17 -17 -16 -16 -16 -15 -15 -15 -15 -16 -18 -20 -22 -25 -28 -31 -32 -32 -32 -33 -33 -34 -34 -34 -34 -34 -33 -33 -33 -34 -33 -29 -29 -28 -26 -24 -23
-14 -13 -12 -11 -12 -12 -13 -14 -13 -14 -17 -19 -18 -18 -17 -16 -16 -16 -15 -15 -14 -14 -14 -14 -15 -16 -18 -20 -22 -25 -29 -31 -31 -31 -32 -33 -34 -34 -34 -35 -34 -34 -34 -34 -34 -33 -30 -29 -27 -26 -25 -24
-14 -13 -12 -11 -12 -12 -13 -14 -13 -14 -17 -19 -18 -17 -16 -16 -15 -15 -14 -14 -13 -13 -13 -13 -14 -15 -16 -18 -20 -22 -25 -29 -29 -30 -32 -33 -34 -35 -35 -35 -35 -35 -34 -34 -35 -35 -32 -30 -27 -25 -25 -27
-13 -13 -12 -11 -12 -13 -13 -14 -14 -14 -17 -18 -17 -16 -16 -15 -15 -14 -13 -13 -12 -12 -11 -12 -12 -13 -15 -16 -17 -19 -22 -26 -27 -29 -30 -33 -34 -35 -35 -35 -35 -36 -35 -35 -35 -36 -35 -33 -31 -28 -27 -27
-14 -13 -12 -12 -12 -13 -13 -13 -13 -13 -14 -16 -16 -15 -15 -15 -14 -13 -13 -12 -11 -10 -10 -10 -11 -12 -13 -15 -16 -17 -19 -22 -25 -26 -28 -32 -34 -35 -35 -35 -36 -36 -36 -36 -34 -34 -37 -37 -36 -34 -31 -29

ECMWFFLT2_850_dewp_105.txt.gz
Dewpoint
2 2 2 -0 -8 -7 -5 -7 -7 -8 -9 -9 -9 -10 -11 -12 -13 -13 -14 -14 -14 -14 -14 -15 -14 -15 -15 -15 -15 -15 -16 -16 -16 -16 -16 -16 -16 -15 -15 -15 -15 -15 -15 -15 -15 -15 -15 -15 -15 -15 -15 -15
2 2 2 -2 -7 -5 -6 -7 -7 -9 -10 -10 -10 -11 -12 -12 -13 -13 -13 -13 -14 -14 -14 -14 -14 -15 -15 -15 -16 -15 -16 -16 -16 -16 -16 -16 -15 -16 -15 -15 -15 -15 -15 -15 -15 -14 -15 -14 -15 -15 -14 -14
2 2 1 -3 -6 -5 -6 -6 -7 -9 -10 -11 -11 -11 -12 -12 -12 -12 -13 -13 -13 -14 -14 -14 -14 -15 -15 -15 -15 -15 -16 -15 -16 -15 -15 -15 -15 -15 -15 -15 -14 -15 -14 -14 -14 -14 -14 -14 -15 -14 -13 -13
1 1 -1 -4 -5 -5 -6 -6 -7 -9 -10 -11 -11 -11 -11 -11 -12 -12 -13 -13 -13 -14 -14 -14 -14 -15 -15 -15 -15 -15 -15 -15 -15 -15 -14 -14 -14 -14 -14 -14 -14 -14 -14 -14 -14 -14 -14 -14 -14 -13 -13 -13
1 0 -2 -4 -4 -5 -5 -6 -7 -9 -10 -10 -10 -11 -11 -12 -12 -12 -13 -13 -14 -14 -14 -14 -14 -14 -14 -14 -14 -14 -14 -14 -14 -14 -14 -13 -13 -13 -13 -13 -13 -13 -13 -13 -13 -13 -14 -13 -13 -13 -13 -13
1 -1 -3 -3 -4 -5 -5 -7 -8 -9 -10 -10 -10 -11 -11 -12 -12 -13 -13 -13 -14 -14 -14 -14 -14 -13 -13 -13 -13 -13 -13 -13 -13 -13 -13 -13 -13 -13 -13 -13 -13 -13 -13 -13 -13 -13 -13 -13 -13 -13 -13 -12
-1 -3 -3 -3 -4 -5 -5 -7 -8 -9 -10 -10 -10 -11 -12 -12 -13 -13 -13 -13 -13 -13 -13 -13 -13 -13 -13 -13 -14 -14 -14 -15 -15 -15 -15 -15 -15 -15 -14 -14 -14 -14 -14 -13 -13 -13 -13 -13 -13 -13 -13 -12
-2 -3 -3 -4 -4 -5 -6 -7 -9 -9 -9 -10 -10 -11 -12 -12 -13 -13 -13 -13 -13 -13 -13 -13 -14 -15 -16 -16 -17 -17 -17 -18 -18 -19 -19 -19 -19 -19 -19 -18 -18 -18 -17 -17 -16 -16 -15 -15 -14 -14 -13 -13
-3 -3 -3 -4 -5 -5 -7 -8 -9 -9 -10 -10 -10 -11 -12 -13 -13 -13 -13 -12 -12 -13 -14 -15 -16 -17 -17 -17 -17 -17 -18 -19 -19 -20 -21 -22 -23 -23 -23 -23 -23 -22 -22 -22 -21 -20 -20 -19 -18 -17 -16 -16
-2 -2 -3 -4 -5 -6 -7 -8 -9 -9 -10 -10 -11 -12 -13 -13 -13 -12 -12 -13 -14 -15 -16 -17 -17 -17 -16 -16 -17 -17 -19 -20 -22 -24 -24 -25 -25 -26 -25 -25 -26 -26 -26 -25 -25 -25 -25 -24 -23 -22 -21 -20
-1 -2 -3 -5 -5 -6 -8 -9 -9 -9 -10 -10 -11 -12 -13 -12 -12 -12 -13 -14 -16 -16 -17 -16 -16 -16 -16 -17 -19 -20 -22 -24 -25 -25 -26 -26 -26 -26 -26 -26 -26 -26 -26 -26 -27 -27 -26 -27 -26 -26 -26 -25
-1 -2 -4 -5 -6 -7 -9 -9 -9 -10 -10 -11 -12 -12 -12 -12 -11 -12 -14 -15 -16 -16 -16 -15 -15 -16 -18 -20 -23 -24 -25 -25 -25 -25 -26 -25 -26 -26 -26 -26 -26 -26 -27 -26 -27 -26 -27 -27 -27 -27 -27 -28
-2 -3 -5 -6 -7 -8 -9 -9 -10 -10 -10 -11 -12 -12 -12 -11 -12 -13 -15 -16 -16 -15 -15 -15 -17 -19 -22 -24 -25 -25 -25 -25 -25 -25 -26 -25 -26 -26 -26 -26 -26 -26 -26 -26 -27 -26 -27 -26 -27 -27 -27 -27
-3 -4 -5 -6 -8 -9 -9 -9 -9 -10 -11 -12 -12 -12 -11 -12 -13 -15 -16 -15 -15 -15 -15 -17 -20 -23 -25 -25 -25 -25 -25 -26 -26 -26 -26 -26 -26 -26 -26 -26 -26 -26 -26 -26 -27 -26 -27 -27 -27 -27 -27 -27
-4 -5 -6 -7 -9 -9 -9 -9 -10 -10 -11 -12 -12 -12 -12 -13 -14 -15 -15 -15 -15 -15 -18 -21 -24 -25 -25 -25 -25 -25 -25 -25 -26 -26 -26 -25 -26 -26 -26 -26 -26 -26 -26 -26 -27 -27 -27 -27 -27 -27 -27 -27
-5 -6 -7 -8 -9 -9 -9 -9 -10 -11 -12 -12 -12 -11 -12 -14 -15 -15 -15 -15 -16 -18 -21 -24 -24 -25 -25 -25 -25 -25 -25 -25 -25 -26 -26 -26 -26 -26 -26 -26 -26 -26 -26 -27 -27 -27 -27 -27 -27 -27 -28 -28
-6 -7 -8 -9 -9 -9 -9 -10 -10 -11 -12 -12 -11 -12 -13 -14 -15 -14 -14 -15 -18 -21 -23 -24 -24 -25 -25 -25 -25 -25 -25 -25 -26 -25 -26 -26 -26 -26 -26 -26 -26 -26 -27 -27 -27 -27 -28 -28 -27 -28 -28 -28
-7 -8 -9 -9 -9 -9 -9 -10 -11 -12 -12 -11 -12 -13 -14 -14 -14 -14 -15 -17 -20 -22 -23 -23 -24 -24 -25 -25 -25 -26 -26 -26 -26 -26 -26 -26 -26 -26 -26 -27 -27 -27 -27 -28 -28 -28 -27 -28 -28 -28 -29 -28
-8 -9 -9 -9 -9 -9 -10 -10 -12 -12 -11 -11 -12 -13 -14 -14 -14 -15 -17 -20 -22 -22 -23 -23 -23 -24 -25 -25 -25 -26 -26 -26 -26 -26 -26 -26 -26 -27 -27 -27 -27 -27 -27 -27 -27 -28 -28 -28 -29 -28 -28 -29
-9 -9 -10 -9 -9 -9 -10 -11 -12 -12 -11 -11 -12 -13 -14 -14 -14 -16 -19 -21 -22 -22 -22 -23 -23 -24 -24 -25 -25 -26 -26 -26 -26 -27 -27 -27 -27 -27 -27 -28 -28 -28 -28 -28 -28 -28 -28 -28 -29 -29 -28 -29
-9 -9 -9 -9 -9 -10 -11 -11 -12 -11 -11 -12 -13 -13 -14 -14 -15 -18 -20 -21 -21 -22 -22 -22 -22 -23 -23 -24 -25 -25 -26 -26 -27 -27 -27 -28 -28 -27 -28 -28 -28 -29 -28 -29 -29 -28 -28 -28 -28 -29 -28 -28
-9 -10 -9 -9 -9 -10 -11 -12 -12 -11 -11 -12 -13 -13 -14 -14 -16 -19 -21 -21 -21 -21 -21 -21 -21 -21 -22 -23 -24 -25 -25 -26 -26 -27 -28 -28 -28 -28 -28 -29 -29 -29 -29 -29 -29 -28 -28 -28 -28 -29 -29 -28
-9 -9 -9 -9 -10 -11 -11 -12 -12 -12 -12 -12 -13 -14 -14 -15 -17 -20 -20 -20 -20 -20 -20 -20 -20 -20 -20 -21 -22 -23 -24 -25 -26 -26 -28 -29 -29 -29 -29 -29 -29 -29 -29 -29 -29 -29 -28 -29 -29 -28 -28 -27
-10 -10 -9 -10 -10 -11 -12 -12 -12 -12 -12 -12 -13 -13 -14 -15 -18 -20 -20 -20 -19 -19 -19 -19 -19 -19 -19 -19 -19 -20 -22 -23 -25 -26 -27 -29 -30 -30 -30 -30 -30 -30 -30 -30 -30 -29 -30 -30 -29 -27 -26 -26
-10 -10 -10 -11 -12 -13 -13 -13 -12 -12 -12 -12 -13 -13 -14 -16 -19 -20 -20 -19 -18 -18 -17 -17 -17 -17 -17 -17 -17 -18 -18 -20 -22 -24 -26 -28 -30 -30 -31 -31 -31 -31 -31 -30 -31 -31 -31 -30 -27 -24 -23 -24
-10 -10 -11 -12 -12 -13 -13 -12 -12 -12 -12 -12 -13 -13 -14 -16 -19 -19 -19 -18 -17 -17 -16 -16 -16 -15 -15 -15 -15 -16 -16 -17 -19 -21 -23 -25 -28 -30 -31 -32 -32 -31 -31 -32 -32 -32 -30 -28 -28 -25 -23 -22
-11 -11 -12 -12 -12 -12 -12 -12 -12 -12 -12 -13 -13 -13 -14 -15 -18 -19 -18 -17 -17 -16 -16 -15 -15 -15 -14 -14 -14 -14 -14 -15 -16 -18 -21 -23 -25 -28 -30 -32 -32 -31 -32 -33 -33 -32 -29 -28 -29 -28 -26 -22
-11 -12 -12 -12 -12 -12 -12 -12 -12 -13 -13 -13 -13 -14 -14 -15 -18 -19 -18 -17 -16 -16 -15 -15 -15 -14 -14 -13 -13 -13 -13 -14 -15 -16 -18 -20 -22 -25 -28 -31 -32 -31 -32 -33 -33 -32 -29 -28 -28 -27 -26 -24
-12 -12 -12 -12 -12 -12 -12 -12 -13 -13 -13 -14 -15 -14 -14 -15 -17 -19 -18 -17 -16 -16 -15 -15 -14 -14 -13 -12 -12 -12 -12 -13 -14 -14 -16 -18 -20 -22 -25 -30 -32 -32 -32 -31 -33 -33 -31 -29 -27 -26 -27 -28
-14 -13 -12 -12 -13 -14 -14 -13 -13 -14 -15 -15 -15 -15 -15 -15 -16 -18 -18 -17 -16 -16 -15 -15 -14 -13 -12 -12 -11 -12 -12 -12 -12 -13 -15 -16 -18 -19 -22 -27 -31 -32 -32 -31 -31 -32 -32 -31 -29 -28 -29 -29
-16 -15 -13 -13 -14 -15 -15 -14 -14 -14 -14 -14 -14 -14 -14 -14 -14 -16 -17 -17 -17 -16 -15 -15 -14 -13 -12 -11 -10 -11 -11 -11 -11 -12 -14 -15 -16 -17 -19 -24 -30 -33 -33 -32 -31 -29 -29 -31 -32 -33 -33 -30

ECMWFFLT2_850_dewp_108.txt.gz
Dewpoint
2 2 2 1 -3 -7 -6 -7 -8 -9 -10 -10 -10 -11 -11 -12 -13 -13 -14 -14 -14 -15 -15 -15 -15 -15 -16 -16 -16 -16 -16 -16 -17 -16 -16 -16 -16 -16 -16 -16 -16 -16 -16 -16 -16 -16 -16 -15 -15 -15 -15 -14
3 3 2 0 -4 -6 -6 -7 -8 -9 -11 -11 -11 -12 -12 -12 -13 -13 -13 -14 -14 -14 -15 -15 -15 -15 -15 -15 -16 -16 -16 -16 -16 -16 -16 -16 -16 -16 -15 -16 -15 -15 -15 -15 -15 -15 -15 -15 -15 -15 -15 -14
3 2 -0 -1 -4 -6 -6 -7 -8 -9 -11 -11 -11 -11 -12 -12 -12 -13 -13 -13 -14 -14 -14 -15 -15 -15 -15 -15 -15 -15 -15 -15 -15 -15 -15 -15 -15 -15 -15 -15 -15 -15 -14 -14 -14 -14 -15 -15 -15 -14 -14 -15
3 0 -1 -2 -4 -5 -6 -7 -8 -9 -10 -11 -11 -11 -11 -12 -12 -13 -13 -13 -14 -14 -14 -14 -14 -14 -15 -14 -14 -14 -14 -14 -14 -14 -14 -14 -13 -14 -14 -13 -13 -13 -13 -13 -13 -13 -13 -14 -14 -14 -14 -14
1 -0 -0 -1 -4 -5 -5 -7 -8 -9 -10 -10 -10 -11 -11 -12 -12 -13 -13 -13 -13 -14 -14 -14 -14 -14 -13 -13 -14 -13 -14 -14 -14 -14 -14 -15 -14 -14 -14 -14 -14 -14 -14 -14 -14 -14 -13 -14 -13 -13 -14 -13
1 0 1 -2 -4 -4 -5 -6 -8 -10 -10 -10 -10 -11 -12 -12 -13 -13 -13 -13 -13 -13 -13 -13 -13 -13 -14 -14 -15 -15 -16 -16 -17 -17 -17 -17 -17 -17 -17 -17 -17 -16 -16 -16 -16 -16 -16 -15 -15 -15 -14 -14
0 1 0 -3 -4 -4 -5 -6 -8 -10 -10 -10 -11 -11 -12 -12 -13 -13 -13 -13 -13 -14 -14 -14 -15 -15 -16 -17 -18 -18 -19 -19 -19 -20 -20 -21 -22 -22 -22 -21 -21 -22 -21 -21 -21 -21 -20 -20 -19 -18 -18 -17
1 2 -1 -4 -4 -5 -5 -7 -9 -10 -10 -10 -10 -11 -12 -12 -13 -13 -14 -14 -14 -15 -16 -17 -18 -19 -19 -20 -20 -20 -20 -21 -22 -23 -24 -25 -25 -26 -26 -26 -27 -27 -26 -27 -26 -25 -26 -25 -24 -24 -23 -23
2 1 -1 -3 -4 -5 -6 -7 -9 -10 -10 -10 -11 -11 -12 -13 -13 -14 -14 -14 -15 -17 -18 -19 -19 -19 -20 -20 -21 -22 -23 -24 -25 -26 -27 -27 -27 -27 -27 -28 -28 -28 -28 -28 -29 -29 -28 -28 -28 -27 -27 -27
2 0 -2 -3 -3 -5 -6 -7 -9 -10 -10 -10 -11 -11 -12 -13 -14 -14 -14 -15 -16 -17 -18 -18 -18 -19 -20 -20 -22 -23 -25 -26 -27 -27 -27 -27 -27 -27 -28 -28 -28 -28 -29 -29 -29 -29 -29 -29 -29 -29 -29 -28
1 -1 -2 -2 -3 -5 -6 -8 -9 -10 -10 -11 -11 -11 -13 -13 -14 -14 -14 -15 -16 -17 -18 -18 -18 -19 -20 -22 -24 -25 -26 -26 -26 -27 -26 -27 -27 -27 -27 -27 -28 -28 -28 -28 -29 -29 -29 -30 -29 -30 -30 -29
-1 -2 -2 -2 -3 -5 -6 -8 -9 -10 -10 -11 -11 -12 -13 -13 -14 -14 -14 -15 -16 -17 -18 -18 -18 -19 -22 -24 -25 -26 -26 -26 -26 -26 -26 -26 -26 -26 -27 -27 -27 -27 -27 -28 -28 -28 -29 -29 -30 -30 -30 -30
-1 -2 -2 -2 -3 -5 -7 -8 -9 -10 -10 -10 -11 -12 -13 -13 -13 -14 -15 -15 -16 -17 -17 -18 -19 -21 -24 -25 -25 -25 -25 -26 -26 -26 -26 -26 -27 -26 -26 -27 -27 -27 -27 -27 -27 -28 -28 -28 -29 -29 -29 -30
-2 -2 -3 -3 -4 -6 -7 -8 -10 -10 -10 -10 -11 -12 -13 -13 -13 -14 -15 -15 -16 -17 -17 -18 -20 -23 -25 -25 -25 -25 -25 -26 -26 -26 -26 -26 -26 -26 -26 -26 -26 -27 -27 -27 -27 -27 -27 -28 -28 -29 -29 -29
-2 -3 -4 -4 -5 -6 -7 -8 -10 -9 -10 -10 -11 -12 -13 -13 -13 -14 -15 -16 -16 -16 -17 -19 -22 -24 -24 -25 -25 -25 -25 -25 -25 -25 -25 -26 -25 -25 -26 -26 -26 -26 -26 -26 -26 -27 -27 -27 -27 -28 -28 -28
-2 -4 -4 -5 -6 -7 -7 -9 -10 -9 -10 -10 -11 -12 -13 -13 -13 -14 -15 -16 -16 -16 -18 -21 -23 -24 -24 -24 -24 -25 -25 -25 -25 -25 -25 -25 -25 -25 -25 -26 -26 -25 -26 -26 -26 -26 -26 -26 -27 -27 -27 -28
-3 -4 -5 -6 -7 -7 -8 -10 -10 -10 -10 -10 -12 -13 -13 -14 -14 -15 -16 -16 -16 -17 -19 -22 -23 -23 -24 -24 -24 -24 -24 -25 -25 -25 -25 -25 -25 -25 -25 -25 -25 -25 -25 -25 -26 -26 -26 -26 -27 -27 -27 -27
-3 -4 -6 -7 -7 -8 -9 -10 -10 -10 -10 -11 -12 -13 -13 -13 -13 -14 -15 -15 -16 -18 -21 -23 -23 -23 -23 -24 -24 -24 -24 -25 -25 -25 -25 -25 -25 -25 -25 -25 -25 -25 -25 -25 -25 -25 -26 -26 -26 -27 -27 -27
-4 -5 -6 -7 -7 -8 -9 -9 -9 -10 -10 -11 -12 -13 -13 -13 -13 -14 -15 -16 -17 -19 -22 -22 -23 -23 -23 -23 -23 -24 -24 -24 -25 -25 -25 -25 -25 -25 -25 -25 -25 -25 -25 -25 -25 -25 -25 -26 -26 -26 -26 -27
-5 -6 -7 -7 -7 -9 -10 -9 -10 -10 -10 -11 -12 -13 -14 -13 -13 -14 -15 -16 -17 -20 -22 -22 -22 -22 -22 -23 -22 -23 -23 -24 -24 -25 -25 -25 -25 -25 -25 -25 -25 -25 -24 -25 -25 -25 -25 -25 -26 -26 -26 -27
-5 -6 -7 -8 -8 -9 -10 -10 -9 -10 -10 -11 -12 -14 -14 -14 -14 -14 -15 -16 -18 -21 -22 -22 -22 -21 -22 -21 -22 -22 -22 -23 -24 -24 -24 -25 -25 -25 -25 -25 -25 -25 -25 -25 -25 -25 -25 -25 -25 -26 -26 -26
-6 -7 -7 -8 -9 -9 -10 -10 -9 -10 -10 -11 -12 -13 -14 -14 -13 -14 -15 -15 -18 -21 -21 -21 -21 -21 -21 -21 -21 -21 -21 -22 -22 -22 -23 -24 -24 -25 -25 -25 -25 -25 -25 -25 -25 -25 -25 -25 -25 -25 -26 -27
-7 -7 -7 -8 -9 -9 -10 -10 -10 -10 -10 -11 -12 -13 -14 -14 -13 -14 -15 -15 -18 -21 -21 -21 -20 -20 -19 -19 -19 -20 -20 -20 -21 -21 -21 -21 -22 -23 -24 -25 -25 -25 -25 -25 -25 -25 -25 -26 -26 -26 -26 -26
-8 -8 -8 -8 -9 -10 -10 -11 -10 -10 -10 -11 -13 -13 -14 -14 -14 -14 -15 -15 -17 -20 -21 -20 -20 -19 -18 -18 -18 -18 -18 -19 -19 -19 -19 -20 -20 -21 -22 -23 -24 -25 -25 -25 -26 -26 -26 -26 -26 -27 -27 -27
-9 -10 -9 -10 -10 -11 -11 -11 -11 -11 -11 -12 -13 -14 -14 -15 -14 -15 -15 -15 -17 -20 -21 -20 -19 -18 -17 -17 -17 -17 -17 -17 -17 -17 -17 -17 -18 -18 -20 -21 -22 -23 -25 -26 -26 -26 -26 -26 -26 -27 -27 -28
-12 -12 -11 -12 -11 -12 -11 -11 -11 -12 -13 -13 -14 -14 -15 -15 -15 -15 -15 -15 -16 -19 -21 -20 -18 -18 -17 -16 -16 -16 -15 -15 -15 -15 -15 -15 -16 -16 -17 -18 -19 -21 -23 -25 -26 -27 -26 -26 -27 -27 -28 -28
-13 -13 -12 -12 -11 -11 -11 -11 -11 -12 -13 -13 -13 -14 -15 -16 -15 -15 -16 -15 -15 -17 -20 -20 -18 -17 -16 -16 -15 -15 -15 -15 -14 -14 -14 -13 -13 -14 -15 -16 -17 -19 -21 -23 -25 -27 -28 -28 -28 -28 -27 -25
-13 -12 -12 -11 -11 -11 -10 -10 -11 -11 -12 -12 -13 -14 -16 -17 -16 -16 -16 -15 -15 -16 -18 -19 -18 -17 -16 -16 -15 -15 -14 -14 -14 -13 -13 -12 -12 -12 -13 -14 -16 -17 -19 -21 -24 -27 -29 -30 -29 -27 -27 -24
-13 -12 -12 -11 -10 -10 -10 -10 -10 -11 -12 -13 -14 -16 -17 -18 -18 -17 -16 -15 -15 -15 -17 -19 -19 -18 -17 -16 -16 -15 -15 -14 -14 -13 -12 -12 -11 -11 -12 -13 -14 -16 -18 -19 -22 -26 -29 -30 -29 -27 -27 -28
-15 -13 -13 -12 -12 -12 -12 -12 -12 -13 -14 -15 -16 -17 -18 -19 -18 -17 -16 -15 -15 -14 -15 -17 -18 -18 -17 -17 -16 -15 -15 -14 -13 -13 -11 -11 -11 -10 -11 -11 -12 -14 -16 -19 -21 -24 -28 -30 -30 -30 -30 -31
-18 -16 -15 -14 -13 -14 -14 -14 -15 -15 -15 -16 -16 -17 -17 -17 -17 -17 -16 -15 -15 -14 -14 -16 -17 -18 -18 -17 -16 -16 -14 -14 -13 -12 -11 -10 -10 -10 -10 -10 -11 -13 -15 -17 -20 -24 -27 -29 -31 -32 -32 -32

ECMWFFLT2_850_dewp_111.txt.gz
Dewpoint
3 2 2 2 1 -0 -4 -7 -8 -9 -10 -10 -11 -11 -11 -11 -12 -13 -13 -14 -14 -15 -14 -16 -15 -16 -16 -16 -17 -17 -17 -17 -17 -17 -17 -17 -17 -16 -17 -17 -17 -17 -17 -17 -17 -17 -17 -17 -17 -17 -17 -17
3 3 2 2 1 -1 -4 -7 -7 -8 -10 -11 -11 -11 -12 -12 -12 -12 -13 -14 -14 -14 -14 -15 -15 -16 -16 -16 -16 -16 -16 -16 -16 -16 -16 -16 -16 -16 -16 -16 -16 -16 -16 -16 -16 -16 -16 -16 -16 -16 -16 -16
3 3 2 1 0 -2 -5 -7 -7 -8 -9 -10 -11 -11 -12 -12 -12 -12 -12 -13 -13 -14 -14 -14 -15 -15 -15 -15 -15 -15 -15 -15 -15 -15 -15 -15 -15 -15 -15 -15 -14 -14 -14 -14 -15 -15 -15 -14 -15 -15 -15 -15
3 3 2 1 -1 -3 -5 -6 -7 -8 -9 -10 -11 -11 -11 -11 -11 -12 -12 -13 -13 -13 -14 -14 -14 -15 -15 -15 -14 -14 -14 -14 -14 -14 -14 -14 -14 -14 -14 -14 -14 -14 -14 -14 -14 -14 -14 -14 -14 -14 -14 -14
3 3 2 1 -1 -4 -5 -6 -7 -8 -9 -10 -11 -11 -11 -11 -11 -12 -12 -13 -13 -13 -14 -14 -14 -14 -14 -14 -14 -13 -14 -14 -14 -14 -14 -14 -15 -15 -15 -15 -16 -16 -16 -16 -16 -15 -15 -15 -15 -15 -14 -14
4 3 2 0 -1 -4 -5 -5 -6 -8 -10 -11 -11 -11 -11 -11 -12 -12 -12 -13 -13 -13 -13 -13 -13 -13 -13 -14 -14 -14 -15 -16 -17 -17 -18 -18 -19 -20 -20 -21 -21 -22 -22 -22 -22 -21 -21 -20 -20 -19 -18 -18
4 3 2 0 -1 -3 -5 -5 -6 -8 -10 -11 -11 -11 -11 -12 -12 -12 -13 -13 -13 -14 -14 -14 -14 -14 -15 -16 -17 -18 -19 -20 -22 -22 -23 -24 -25 -26 -26 -27 -27 -27 -27 -28 -28 -27 -27 -27 -27 -27 -26 -25
3 2 0 -0 -1 -2 -5 -6 -7 -8 -10 -11 -11 -11 -12 -13 -13 -13 -14 -14 -14 -15 -16 -16 -16 -17 -19 -21 -22 -22 -23 -24 -25 -26 -27 -28 -28 -29 -29 -29 -30 -29 -30 -30 -30 -30 -30 -30 -30 -29 -30 -30
2 1 -0 -0 0 -1 -4 -6 -6 -8 -10 -11 -11 -12 -13 -14 -14 -15 -15 -16 -17 -17 -18 -20 -20 -22 -23 -23 -24 -25 -25 -27 -27 -28 -29 -29 -30 -29 -29 -30 -30 -30 -30 -31 -30 -30 -31 -30 -31 -30 -30 -31
2 1 1 1 1 -1 -4 -5 -6 -8 -10 -11 -12 -13 -13 -14 -16 -16 -16 -17 -18 -19 -20 -22 -23 -24 -24 -24 -25 -25 -27 -28 -29 -29 -29 -28 -29 -29 -30 -30 -30 -31 -31 -31 -31 -30 -32 -31 -31 -31 -30 -31
3 2 2 2 1 -2 -3 -4 -6 -8 -10 -11 -12 -13 -13 -14 -16 -17 -17 -17 -19 -20 -21 -22 -23 -23 -23 -23 -25 -26 -27 -28 -28 -27 -29 -28 -29 -29 -29 -29 -29 -30 -31 -31 -31 -30 -31 -31 -31 -31 -32 -31
2 2 2 1 -1 -2 -3 -4 -6 -9 -10 -11 -12 -13 -13 -15 -16 -17 -18 -18 -19 -20 -21 -21 -22 -22 -22 -23 -25 -27 -27 -27 -28 -27 -27 -27 -28 -29 -27 -29 -29 -29 -29 -29 -29 -30 -30 -30 -31 -30 -31 -31
1 1 1 -0 -2 -3 -3 -5 -7 -9 -10 -11 -12 -12 -13 -15 -16 -17 -18 -19 -20 -20 -20 -20 -21 -21 -22 -24 -26 -27 -27 -26 -26 -26 -27 -27 -27 -28 -28 -28 -28 -28 -28 -29 -29 -29 -30 -29 -30 -30 -30 -30
1 0 -0 -2 -3 -3 -4 -5 -7 -9 -10 -11 -12 -12 -13 -14 -16 -17 -17 -18 -19 -19 -20 -20 -20 -21 -22 -25 -26 -26 -26 -26 -26 -26 -26 -26 -27 -26 -27 -27 -27 -27 -27 -28 -28 -28 -29 -28 -28 -29 -29 -29
0 -0 -1 -2 -3 -4 -4 -6 -7 -8 -10 -11 -11 -12 -12 -13 -15 -16 -17 -17 -17 -18 -19 -20 -20 -22 -24 -25 -25 -25 -25 -25 -26 -26 -26 -26 -26 -26 -25 -26 -26 -26 -26 -27 -27 -27 -27 -27 -28 -28 -28 -28
-0 -1 -1 -2 -3 -4 -5 -6 -7 -8 -10 -11 -11 -11 -12 -13 -14 -15 -16 -16 -17 -18 -19 -20 -21 -22 -24 -25 -25 -25 -25 -25 -25 -25 -25 -25 -25 -25 -25 -25 -25 -25 -26 -26 -26 -26 -26 -26 -27 -27 -27 -28
-1 -2 -2 -2 -2 -4 -5 -6 -7 -8 -9 -11 -11 -11 -11 -12 -13 -15 -15 -15 -16 -18 -19 -20 -22 -23 -25 -25 -24 -24 -24 -24 -25 -25 -25 -25 -25 -25 -25 -25 -25 -25 -25 -25 -25 -25 -25 -25 -26 -26 -26 -26
-1 -2 -2 -2 -2 -3 -5 -7 -7 -8 -10 -11 -11 -11 -11 -12 -13 -14 -15 -15 -16 -18 -19 -21 -22 -23 -24 -24 -24 -24 -24 -24 -24 -24 -24 -24 -24 -24 -25 -24 -24 -24 -24 -24 -24 -24 -25 -25 -25 -25 -26 -26
-2 -2 -3 -3 -3 -5 -6 -7 -8 -9 -10 -11 -12 -12 -12 -12 -13 -14 -15 -15 -16 -18 -19 -21 -22 -23 -24 -24 -24 -23 -23 -24 -23 -23 -23 -23 -24 -23 -24 -24 -24 -24 -24 -24 -24 -24 -24 -24 -25 -24 -25 -25
-2 -2 -3 -4 -4 -6 -7 -7 -8 -9 -10 -11 -12 -12 -12 -12 -13 -14 -15 -15 -16 -18 -19 -20 -21 -23 -24 -23 -23 -23 -23 -22 -22 -22 -22 -23 -23 -23 -23 -24 -24 -23 -23 -24 -24 -24 -24 -24 -24 -24 -25 -25
-1 -2 -2 -3 -4 -5 -6 -7 -8 -9 -10 -11 -11 -12 -12 -12 -12 -14 -15 -15 -16 -17 -19 -20 -20 -22 -23 -23 -22 -22 -21 -21 -21 -21 -21 -22 -22 -22 -22 -22 -22 -23 -23 -23 -23 -23 -24 -24 -24 -24 -24 -24
-2 -2 -2 -3 -4 -5 -6 -7 -7 -8 -9 -10 -11 -12 -12 -12 -12 -13 -14 -15 -15 -17 -18 -19 -20 -22 -23 -22 -21 -21 -21 -20 -20 -20 -20 -21 -21 -21 -21 -21 -21 -22 -22 -22 -23 -23 -23 -24 -23 -24 -24 -24
-1 -2 -2 -3 -3 -4 -6 -7 -7 -8 -9 -11 -11 -12 -13 -13 -12 -12 -14 -15 -16 -16 -18 -18 -19 -21 -22 -22 -21 -20 -20 -20 -19 -19 -19 -19 -19 -19 -19 -19 -19 -20 -20 -20 -21 -22 -22 -23 -23 -24 -24 -24
-2 -2 -2 -3 -4 -5 -7 -8 -8 -9 -10 -11 -12 -13 -13 -14 -13 -13 -14 -15 -16 -16 -17 -18 -18 -20 -22 -21 -21 -20 -19 -19 -19 -18 -18 -18 -18 -17 -17 -17 -18 -18 -19 -19 -19 -20 -21 -22 -23 -24 -24 -24
-3 -3 -4 -5 -6 -9 -10 -10 -10 -10 -12 -12 -13 -14 -14 -14 -15 -14 -14 -15 -16 -16 -17 -17 -17 -18 -21 -21 -20 -19 -19 -18 -18 -18 -17 -17 -17 -16 -16 -16 -16 -17 -17 -17 -18 -19 -19 -20 -21 -23 -24 -25
-7 -7 -8 -9 -11 -13 -12 -12 -12 -12 -13 -13 -13 -13 -14 -15 -15 -15 -15 -15 -16 -16 -16 -16 -17 -18 -19 -21 -20 -19 -18 -18 -18 -18 -17 -17 -16 -16 -16 -15 -15 -15 -15 -16 -16 -17 -17 -18 -20 -22 -24 -24
-10 -11 -11 -11 -11 -11 -11 -12 -12 -12 -12 -12 -12 -12 -13 -14 -15 -15 -16 -16 -16 -16 -17 -17 -17 -17 -18 -20 -20 -19 -19 -18 -18 -17 -17 -17 -16 -16 -15 -15 -15 -15 -14 -14 -14 -15 -16 -17 -18 -20 -22 -23
-12 -11 -10 -9 -9 -9 -9 -10 -10 -10 -10 -10 -10 -11 -13 -14 -16 -17 -17 -17 -16 -17 -18 -17 -17 -17 -17 -19 -20 -20 -19 -18 -18 -17 -17 -17 -16 -16 -15 -15 -14 -14 -13 -13 -13 -14 -15 -16 -18 -20 -21 -23
-12 -11 -10 -8 -7 -7 -7 -8 -8 -9 -10 -11 -11 -12 -15 -17 -18 -18 -18 -18 -17 -17 -18 -18 -17 -17 -16 -17 -19 -20 -19 -18 -18 -17 -17 -17 -16 -15 -15 -14 -13 -13 -12 -12 -12 -12 -13 -15 -18 -20 -20 -22
-12 -11 -11 -10 -9 -9 -9 -10 -11 -13 -15 -16 -16 -17 -18 -17 -17 -18 -18 -18 -18 -17 -17 -18 -17 -16 -16 -16 -17 -19 -19 -18 -18 -17 -17 -17 -16 -15 -14 -13 -12 -12 -11 -11 -11 -11 -12 -13 -14 -16 -17 -20
-12 -11 -12 -12 -12 -13 -14 -15 -17 -21 -21 -19 -18 -18 -17 -16 -16 -17 -17 -18 -18 -18 -17 -17 -17 -16 -16 -15 -15 -17 -18 -18 -18 -18 -17 -16 -15 -15 -13 -12 -12 -11 -11 -10 -10 -11 -11 -11 -12 -13 -14 -17

ECMWFFLT2_850_dewp_114.txt.gz
Dewpoint
3 2 2 2 2 2 1 -1 -3 -7 -9 -9 -10 -10 -10 -9 -10 -10 -11 -11 -9 -9 -9 -11 -12 -13 -15 -14 -16 -16 -17 -17 -17 -18 -17 -17 -17 -17 -17 -18 -17 -18 -18 -17 -18 -17 -18 -18 -17 -18 -17 -18
4 3 3 3 2 2 1 0 -2 -7 -9 -9 -10 -11 -11 -11 -12 -12 -12 -13 -13 -12 -13 -14 -14 -15 -16 -16 -16 -16 -16 -16 -16 -16 -16 -17 -16 -16 -16 -16 -17 -17 -17 -16 -17 -16 -16 -17 -16 -17 -16 -17
4 4 3 3 2 2 2 0 -2 -6 -9 -9 -10 -10 -11 -11 -11 -12 -12 -12 -13 -13 -13 -14 -14 -15 -15 -15 -15 -15 -16 -15 -15 -15 -15 -15 -15 -15 -14 -15 -15 -14 -15 -14 -14 -14 -14 -15 -14 -15 -15 -15
4 4 3 3 3 2 2 0 -2 -5 -8 -9 -10 -11 -11 -11 -11 -11 -11 -12 -12 -13 -13 -13 -14 -14 -14 -14 -14 -14 -15 -14 -14 -14 -14 -14 -14 -14 -14 -14 -14 -14 -14 -14 -15 -14 -14 -14 -14 -14 -14 -14
4 4 3 3 3 2 2 0 -2 -5 -8 -8 -10 -11 -11 -11 -11 -11 -11 -12 -12 -12 -13 -13 -13 -14 -14 -14 -14 -14 -13 -13 -13 -14 -14 -15 -16 -17 -18 -19 -19 -20 -20 -21 -21 -20 -20 -19 -19 -18 -18 -17
4 4 3 3 3 2 2 0 -2 -5 -7 -8 -10 -11 -11 -11 -11 -11 -11 -12 -12 -12 -13 -13 -13 -13 -13 -13 -13 -13 -14 -14 -16 -17 -19 -20 -22 -24 -25 -26 -27 -28 -27 -29 -28 -29 -29 -28 -28 -27 -26 -26
5 4 4 3 3 2 2 0 -2 -5 -8 -8 -10 -10 -11 -11 -11 -12 -12 -12 -12 -13 -13 -13 -13 -13 -13 -14 -15 -16 -17 -19 -21 -24 -25 -27 -28 -28 -30 -31 -30 -31 -31 -31 -31 -31 -31 -31 -32 -31 -32 -32
5 4 4 4 3 2 2 0 -2 -6 -8 -8 -10 -11 -11 -12 -12 -12 -12 -13 -13 -13 -13 -14 -14 -15 -15 -17 -19 -21 -23 -25 -26 -28 -29 -30 -31 -31 -31 -31 -31 -31 -31 -31 -32 -31 -31 -31 -32 -31 -33 -32
5 5 4 4 3 2 1 -1 -3 -6 -7 -8 -9 -10 -12 -12 -13 -14 -14 -14 -14 -14 -15 -16 -17 -18 -19 -21 -24 -25 -27 -28 -28 -30 -31 -31 -31 -31 -31 -31 -31 -31 -32 -32 -32 -32 -32 -32 -32 -33 -32 -33
4 4 4 3 2 1 -1 -1 -2 -4 -6 -7 -9 -10 -12 -12 -14 -15 -16 -16 -16 -17 -18 -19 -20 -22 -23 -24 -27 -27 -27 -28 -30 -31 -31 -31 -31 -31 -30 -31 -31 -31 -32 -31 -32 -32 -32 -32 -32 -33 -32 -33
4 4 3 3 1 0 -1 -1 -1 -3 -5 -6 -8 -10 -12 -13 -14 -16 -17 -17 -18 -20 -21 -22 -23 -24 -25 -26 -27 -27 -28 -28 -30 -30 -30 -30 -29 -30 -30 -30 -31 -30 -31 -31 -31 -31 -31 -32 -31 -32 -32 -32
3 3 3 3 1 1 1 1 -0 -2 -4 -5 -8 -10 -12 -13 -15 -16 -18 -19 -19 -21 -23 -24 -25 -27 -27 -27 -27 -27 -28 -28 -30 -29 -28 -29 -28 -29 -29 -29 -30 -29 -30 -29 -29 -31 -30 -31 -30 -31 -31 -30
2 3 3 3 2 2 1 1 -1 -3 -4 -5 -7 -9 -12 -13 -14 -16 -18 -19 -20 -21 -24 -25 -26 -27 -26 -26 -27 -27 -28 -29 -29 -29 -28 -28 -28 -28 -28 -28 -29 -28 -29 -28 -29 -29 -29 -29 -29 -29 -29 -29
2 2 2 2 2 2 1 0 -1 -3 -4 -5 -7 -9 -11 -13 -14 -16 -17 -19 -20 -21 -23 -25 -26 -26 -26 -26 -26 -27 -28 -28 -27 -27 -27 -27 -27 -27 -27 -28 -28 -28 -27 -28 -28 -28 -28 -29 -28 -28 -29 -28
1 1 1 1 1 1 0 -0 -2 -4 -4 -5 -7 -9 -11 -13 -14 -15 -17 -19 -20 -21 -23 -24 -25 -24 -24 -25 -26 -27 -28 -28 -26 -26 -26 -26 -27 -26 -26 -27 -26 -27 -26 -27 -27 -27 -28 -27 -28 -28 -27 -28
1 0 0 0 0 -0 -1 -1 -3 -4 -5 -6 -8 -9 -11 -12 -14 -15 -16 -18 -19 -20 -21 -22 -23 -23 -23 -24 -26 -27 -27 -27 -26 -26 -25 -25 -26 -26 -26 -26 -26 -26 -25 -26 -26 -26 -26 -26 -26 -26 -26 -27
-0 -0 -0 -1 -1 -2 -2 -2 -3 -4 -5 -6 -8 -9 -10 -12 -13 -14 -15 -16 -18 -19 -20 -21 -22 -23 -23 -24 -25 -26 -26 -26 -25 -25 -25 -25 -25 -25 -25 -25 -25 -25 -24 -25 -24 -25 -25 -25 -25 -25 -25 -26
-1 -0 -0 -1 -1 -2 -2 -3 -3 -4 -5 -6 -7 -8 -10 -11 -12 -13 -14 -15 -16 -17 -19 -20 -21 -22 -23 -24 -25 -26 -26 -25 -25 -25 -25 -25 -24 -24 -24 -24 -24 -24 -24 -24 -24 -24 -24 -24 -24 -24 -24 -24
-0 -0 -1 -1 -1 -2 -2 -2 -3 -3 -4 -5 -6 -8 -9 -10 -11 -12 -13 -14 -15 -17 -18 -19 -21 -22 -22 -23 -24 -25 -25 -25 -24 -24 -24 -24 -23 -23 -23 -23 -23 -23 -23 -23 -23 -23 -23 -23 -23 -24 -24 -24
1 0 -0 -1 -1 -1 -2 -2 -3 -3 -4 -5 -6 -7 -8 -9 -11 -12 -12 -13 -14 -16 -17 -19 -20 -21 -21 -22 -23 -24 -25 -24 -24 -23 -23 -23 -23 -23 -22 -23 -22 -22 -22 -22 -22 -22 -23 -23 -23 -23 -23 -24
2 1 0 -1 -1 -1 -1 -2 -2 -3 -4 -5 -6 -7 -8 -9 -10 -11 -12 -12 -13 -15 -17 -18 -19 -19 -20 -21 -22 -23 -24 -23 -23 -23 -22 -22 -22 -22 -22 -22 -21 -21 -22 -21 -21 -21 -22 -22 -22 -22 -23 -23
2 1 1 0 -0 -1 -1 -1 -2 -3 -4 -5 -6 -7 -8 -9 -10 -11 -11 -12 -12 -13 -15 -17 -18 -18 -19 -20 -21 -22 -24 -23 -22 -22 -22 -21 -21 -21 -21 -21 -21 -20 -21 -20 -20 -20 -20 -21 -21 -21 -21 -22
2 2 1 0 -0 -0 -1 -1 -1 -2 -4 -5 -6 -7 -8 -8 -9 -10 -10 -11 -12 -13 -14 -16 -17 -17 -18 -19 -20 -21 -23 -22 -22 -21 -21 -21 -20 -20 -20 -20 -20 -19 -20 -19 -19 -19 -20 -20 -20 -20 -20 -21
2 2 1 1 0 -0 -1 -1 -1 -2 -3 -4 -6 -7 -7 -8 -9 -9 -10 -11 -11 -12 -13 -15 -16 -17 -17 -18 -19 -20 -22 -22 -22 -21 -20 -20 -20 -19 -19 -19 -19 -19 -18 -18 -18 -18 -18 -18 -18 -19 -19 -19
2 1 1 0 -0 -2 -3 -3 -2 -3 -4 -5 -7 -7 -7 -8 -8 -9 -10 -11 -11 -12 -13 -14 -16 -16 -17 -17 -18 -19 -21 -22 -21 -20 -19 -19 -19 -19 -19 -18 -18 -18 -17 -17 -17 -17 -17 -17 -17 -18 -18 -19
1 0 -0 -1 -2 -4 -4 -4 -5 -5 -6 -7 -8 -8 -8 -9 -9 -10 -10 -11 -11 -12 -12 -14 -15 -16 -17 -17 -18 -18 -19 -21 -21 -20 -19 -19 -19 -18 -18 -18 -17 -17 -17 -17 -17 -16 -16 -16 -17 -18 -18 -18
1 -1 -1 -2 -3 -3 -4 -4 -5 -6 -6 -6 -7 -7 -8 -9 -10 -10 -10 -11 -11 -12 -12 -13 -15 -16 -16 -16 -17 -17 -18 -20 -21 -20 -19 -19 -18 -18 -18 -18 -17 -17 -17 -17 -16 -16 -15 -16 -17 -17 -17 -18
0 -1 -1 -1 -2 -2 -2 -3 -3 -4 -4 -5 -5 -6 -8 -9 -11 -11 -11 -11 -11 -11 -12 -13 -14 -15 -16 -16 -17 -17 -17 -18 -20 -20 -20 -19 -18 -18 -18 -18 -18 -17 -17 -17 -16 -15 -15 -16 -16 -16 -17 -17
-0 -1 -1 -2 -1 -1 -1 -2 -2 -3 -4 -5 -6 -7 -10 -12 -12 -11 -11 -11 -11 -11 -12 -12 -14 -14 -15 -16 -16 -17 -17 -17 -19 -20 -20 -19 -19 -18 -18 -18 -17 -17 -17 -16 -16 -15 -15 -15 -15 -15 -16 -17
-1 -2 -2 -2 -2 -2 -3 -3 -4 -5 -8 -9 -9 -11 -13 -13 -12 -12 -12 -12 -12 -11 -12 -12 -13 -14 -15 -15 -16 -16 -16 -16 -17 -18 -20 -20 -19 -19 -18 -18 -17 -17 -17 -16 -15 -15 -15 -14 -13 -14 -14 -15
-3 -3 -3 -3 -3 -4 -4 -5 -7 -10 -11 -10 -11 -11 -11 -11 -12 -13 -13 -13 -12 -12 -12 -12 -12 -13 -14 -14 -15 -15 -15 -16 -17 -17 -18 -19 -19 -19 -18 -18 -17 -17 -16 -15 -15 -15 -14 -13 -13 -12 -12 -13